Terminal Aerodrome Forecast
Issued by NWS

Home | Current Version | Previous Version | Text Only | Print | Product List | Glossary On
Versions: 1 2 3 4 5 6 7 8 9 10 11 12
000
FTUS45 KABQ 211100
TAFLVS
TAF
KLVS 211130Z 2112/2212 05007KT P6SM FEW120
     FM211400 19010KT P6SM SKC
     FM211900 22014G22KT P6SM VCSH SCT080
     FM220200 21007KT P6SM BKN080
     FM220400 34006KT P6SM SCT080=

USA.gov is the U.S. government's official web portal to all federal, state and local government web resources and services.